Location: Winnipauk Village
(41.1295°N, 73.4171°W)
Time: 19:15:24
(UTC+00:00)

X-37B - Pass Details

Date: 07 August 2021
Orbit: 381 x 393 km, 45.0° (Epoch: 29 August)

Event Time Altitude Azimuth Distance (km) Brightness Sun altitude
Exits shadow 08:42:22 10° 291° (WNW) 1,393 3.1 -12.8°
Maximum altitude 08:45:20 38° 2° (N) 602 1.9 -12.4°
Drops below altitude 10° 08:48:18 10° 72° (ENE) 1,397 4.7 -11.9°
Sets 08:50:27 0° 81° (E) 2,251 5.7 -11.6°
